Location: Unspecified
(0.0000°N, 0.0000°E)
Time: 03:50:02
(UTC+00:00)

Hubble Space Telescope - Visible Passes

Search period start: 29 June 2016 00:00
Search period end: 09 July 2016 00:00
Orbit: 539 x 543 km, 28.5° (Epoch: 27 June)

Date Brightness Start Highest point End Pass type
(mag) Time Alt. Az. Time Alt. Az. Time Alt. Az.
29 Jun 3.4 03:48:04 15° NNE 03:48:57 16° NNE 03:51:35 10° ENE visible
29 Jun 0.7 05:26:04 10° WNW 05:30:13 83° SSW 05:34:24 10° ESE visible
29 Jun 3.8 19:05:08 10° NW 19:06:44 12° NNW 19:08:20 10° N visible
30 Jun 3.3 03:40:23 20° NE 03:40:23 20° NE 03:42:36 10° E visible
30 Jun 0.9 05:16:28 10° WNW 05:20:32 56° SSW 05:24:38 10° SE visible
01 Jul 3.7 03:32:39 14° E 03:32:39 14° E 03:33:21 10° E visible
01 Jul 1.3 05:08:08 17° W 05:10:51 38° SSW 05:14:46 10° SE visible
02 Jul 1.8 05:00:16 25° SW 05:01:12 27° SSW 05:04:46 10° SSE visible
03 Jul 2.4 04:52:14 19° SSW 04:52:14 19° SSW 04:54:37 10° SSE visible
04 Jul 3.2 04:44:01 11° S 04:44:01 11° S 04:44:14 10° S visible
